Weather reports worldwide

Advertisment
Buenos Aires, Argentina (87585): temperature & dewpoint: 16.09.2018 22:00:00 - 22.09.2018 22:00:00 (ART)Buenos Aires, Argentina (87585): wind speed: 16.09.2018 22:00:00 - 22.09.2018 22:00:00 (ART)Buenos Aires, Argentina (87585): wind direction: 16.09.2018 22:00:00 - 22.09.2018 22:00:00 (ART)Buenos Aires, Argentina (87585): reduced air pressure: 16.09.2018 22:00:00 - 22.09.2018 22:00:00 (ART)Buenos Aires, Argentina (87585): visibility: 16.09.2018 22:00:00 - 22.09.2018 22:00:00 (ART)
Date & Time tt [°C] td [°C] ff [km/h] ff [kn] dd ppp [hPa] vv [km]
22.09.2018 22:00:00 - - - - - - -
22.09.2018 21:00:00 22,8 17,7 9 5 SE 1002,4 10
22.09.2018 20:00:00 - - - - - - -
22.09.2018 19:00:00 - - - - - - -
22.09.2018 18:00:00 29,4 21,1 8 4 WNW 997,4 10
22.09.2018 17:00:00 - - - - - - -
22.09.2018 16:00:00 - - - - - - -
22.09.2018 15:00:00 - - - - - - -
22.09.2018 14:00:00 - - - - - - -
22.09.2018 13:00:00 - - - - - - -
22.09.2018 12:00:00 29,1 18,7 13 7 N 1003,6 10
22.09.2018 11:00:00 - - - - - - -
22.09.2018 10:00:00 - - - - - - -
22.09.2018 09:00:00 22,0 18,7 16 9 N 1007,1 10
22.09.2018 08:00:00 - - - - - - -
22.09.2018 07:00:00 - - - - - - -
22.09.2018 06:00:00 20,3 17,7 11 6 N 1007,5 10
22.09.2018 05:00:00 - - - - - - -
22.09.2018 04:00:00 - - - - - - -
22.09.2018 03:00:00 20,6 17,6 4 2 NE 1008,4 10
22.09.2018 02:00:00 - - - - - - -
22.09.2018 01:00:00 - - - - - - -
22.09.2018 00:00:00 20,9 18,2 4 2 NE 1009,9 10
21.09.2018 23:00:00 - - - - - - -
21.09.2018 22:00:00 - - - - - - -
21.09.2018 21:00:00 21,6 17,8 2 1 E 1010,1 10
21.09.2018 20:00:00 - - - - - - -
21.09.2018 19:00:00 - - - - - - -
21.09.2018 18:00:00 27,0 16,1 0 0 N 1008,5 10
21.09.2018 17:00:00 - - - - - - -
21.09.2018 16:00:00 - - - - - - -
21.09.2018 15:00:00 28,4 15,1 13 7 W 1009,6 10
21.09.2018 14:00:00 - - - - - - -
21.09.2018 13:00:00 - - - - - - -
21.09.2018 12:00:00 25,2 15,4 11 6 W 1011,4 10
21.09.2018 11:00:00 - - - - - - -
21.09.2018 10:00:00 - - - - - - -
21.09.2018 09:00:00 18,6 10,5 13 7 NW 1012,2 10
21.09.2018 08:00:00 - - - - - - -
21.09.2018 07:00:00 - - - - - - -
21.09.2018 06:00:00 17,2 8,5 8 4 NW 1011,5 10
21.09.2018 05:00:00 - - - - - - -
21.09.2018 04:00:00 - - - - - - -
21.09.2018 03:00:00 17,4 9,7 11 6 N 1011,9 10
21.09.2018 02:00:00 - - - - - - -
21.09.2018 01:00:00 - - - - - - -
21.09.2018 00:00:00 18,2 7,7 9 5 N 1014,1 10
20.09.2018 23:00:00 - - - - - - -
20.09.2018 22:00:00 - - - - - - -
20.09.2018 21:00:00 19,3 10,1 18 10 N 1014,4 10
20.09.2018 20:00:00 - - - - - - -
20.09.2018 19:00:00 - - - - - - -
20.09.2018 18:00:00 21,0 5,5 11 6 N 1014,5 10
20.09.2018 17:00:00 - - - - - - -
20.09.2018 16:00:00 - - - - - - -
20.09.2018 15:00:00 22,7 3,2 15 8 N 1015,0 10
20.09.2018 14:00:00 - - - - - - -
20.09.2018 13:00:00 - - - - - - -
20.09.2018 12:00:00 21,3 5,4 9 5 NW 1017,3 10
20.09.2018 11:00:00 - - - - - - -
20.09.2018 10:00:00 - - - - - - -
20.09.2018 09:00:00 17,8 5,3 8 4 NW 1017,4 10
20.09.2018 08:00:00 - - - - - - -
20.09.2018 07:00:00 - - - - - - -
20.09.2018 06:00:00 12,0 8,0 2 1 W 1016,3 10
20.09.2018 05:00:00 - - - - - - -
20.09.2018 04:00:00 - - - - - - -
20.09.2018 03:00:00 14,2 8,0 4 2 W 1016,9 10
20.09.2018 02:00:00 - - - - - - -
20.09.2018 01:00:00 - - - - - - -
20.09.2018 00:00:00 14,2 8,0 0 0 N 1016,1 10
19.09.2018 23:00:00 - - - - - - -
19.09.2018 22:00:00 - - - - - - -
19.09.2018 21:00:00 16,1 8,5 2 1 SW 1015,3 10
19.09.2018 20:00:00 - - - - - - -
19.09.2018 19:00:00 - - - - - - -
19.09.2018 18:00:00 19,4 5,2 16 9 SSW 1013,1 10
19.09.2018 17:00:00 - - - - - - -
19.09.2018 16:00:00 - - - - - - -
19.09.2018 15:00:00 21,8 6,2 9 5 SW 1012,1 10
19.09.2018 14:00:00 - - - - - - -
19.09.2018 13:00:00 - - - - - - -
19.09.2018 12:00:00 20,3 7,1 11 6 SW 1012,5 10
19.09.2018 11:00:00 - - - - - - -
19.09.2018 10:00:00 - - - - - - -
19.09.2018 09:00:00 14,9 11,8 5 3 SW 1011,8 10
19.09.2018 08:00:00 - - - - - - -
19.09.2018 07:00:00 - - - - - - -
19.09.2018 06:00:00 12,4 11,3 4 2 SW 1009,8 10
19.09.2018 05:00:00 - - - - - - -
19.09.2018 04:00:00 - - - - - - -
19.09.2018 03:00:00 12,7 11,8 8 4 SW 1008,7 10
19.09.2018 02:00:00 - - - - - - -
19.09.2018 01:00:00 - - - - - - -
19.09.2018 00:00:00 13,2 12,3 8 4 S 1009,7 7
18.09.2018 23:00:00 - - - - - - -
18.09.2018 22:00:00 - - - - - - -
18.09.2018 21:00:00 20,0 15,9 15 8 N 1005,4 10
18.09.2018 20:00:00 - - - - - - -
18.09.2018 19:00:00 - - - - - - -
18.09.2018 18:00:00 21,8 16,6 18 10 N 1004,8 10
18.09.2018 17:00:00 - - - - - - -
18.09.2018 16:00:00 - - - - - - -
18.09.2018 15:00:00 22,6 17,5 9 5 N 1006,2 10
18.09.2018 14:00:00 - - - - - - -
18.09.2018 13:00:00 - - - - - - -
18.09.2018 12:00:00 20,6 16,7 18 10 N 1008,4 10
18.09.2018 11:00:00 - - - - - - -
18.09.2018 10:00:00 - - - - - - -
18.09.2018 09:00:00 19,7 16,6 15 8 NW 1010,2 10
18.09.2018 08:00:00 - - - - - - -
18.09.2018 07:00:00 - - - - - - -
18.09.2018 06:00:00 17,4 15,9 9 5 N 1009,3 10
18.09.2018 05:00:00 - - - - - - -
18.09.2018 04:00:00 - - - - - - -
18.09.2018 03:00:00 17,1 15,6 5 3 NE 1010,4 10
18.09.2018 02:00:00 - - - - - - -
18.09.2018 01:00:00 - - - - - - -
18.09.2018 00:00:00 17,2 15,9 8 4 NE 1012,4 10
17.09.2018 23:00:00 - - - - - - -
17.09.2018 22:00:00 - - - - - - -
17.09.2018 21:00:00 18,7 14,8 4 2 NE 1012,8 10
17.09.2018 20:00:00 - - - - - - -
17.09.2018 19:00:00 - - - - - - -
17.09.2018 18:00:00 21,3 16,8 4 2 E 1012,2 10
17.09.2018 17:00:00 - - - - - - -
17.09.2018 16:00:00 - - - - - - -
17.09.2018 15:00:00 22,3 17,5 9 5 E 1012,6 10
17.09.2018 14:00:00 - - - - - - -
17.09.2018 13:00:00 - - - - - - -
17.09.2018 12:00:00 22,2 17,1 5 3 S 1014,2 10
17.09.2018 11:00:00 - - - - - - -
17.09.2018 10:00:00 - - - - - - -
17.09.2018 09:00:00 17,2 16,7 4 2 S 1014,5 2,0
17.09.2018 08:00:00 - - - - - - -
17.09.2018 07:00:00 - - - - - - -
17.09.2018 06:00:00 15,8 14,9 0 0 N 1013,0 9
17.09.2018 05:00:00 - - - - - - -
17.09.2018 04:00:00 - - - - - - -
17.09.2018 03:00:00 15,8 14,9 0 0 N 1013,3 10
17.09.2018 02:00:00 - - - - - - -
17.09.2018 01:00:00 - - - - - - -
17.09.2018 00:00:00 17,0 16,0 0 0 N 1014,5 10
16.09.2018 23:00:00 - - - - - - -
16.09.2018 22:00:00 - - - - - - -

tt = temperature
td = dewpoint
ff = wind speed
dd = wind direction
ppp = reduced air pressure
vv = visibility

Next stations